Location: �clusier
(49.9361°N, 2.7869°E)
Time: 08:32:10
(UTC+00:00)

Cosmos 1707 - Pass Details

Date: 16 June 2021
Orbit: 514 x 530 km, 82.5° (Epoch: 31 July)

Event Time Altitude Azimuth Distance (km) Brightness Sun altitude
Rises 20:55:08 0° 194° (SSW) 2,644 5.9 -7.1°
Reaches altitude 10° 20:57:15 10° 197° (SSW) 1,763 5.1 -7.3°
Maximum altitude 21:01:07 69° 281° (W) 569 3.1 -7.7°
Drops below altitude 10° 21:05:02 10° 6° (N) 1,786 6.2 -8.1°
Sets 21:07:12 0° 9° (N) 2,683 7.1 -8.3°
